Vorticity
9 7 5 6 6 7 6 9 8 8 8 6 7 7 12 18 29 8 10 10 22 12 16 11 23 22 17 22 27 25 14 9 8 5 4 1 6 2 1 -1 4 3 4 8 10
6 4 4 5 5 6 4 7 6 7 7 7 7 5 13 20 18 15 9 4 4 13 11 13 18 19 23 17 33 27 17 8 9 4 7 4 -1 11 4 5 1 4 4 8 12
5 5 4 5 4 6 5 5 5 6 7 7 6 6 14 22 20 23 19 9 13 13 7 10 16 18 19 19 25 33 23 7 12 5 10 4 6 13 2 4 1 -1 4 9 13
1 3 4 6 6 7 6 5 5 5 7 7 5 7 13 17 20 26 15 13 13 14 16 12 16 19 19 18 17 26 24 15 2 24 5 6 2 -11 15 5 5 7 2 3 8
3 7 7 6 7 7 7 5 5 5 5 6 7 7 12 16 11 10 11 10 12 13 15 17 16 15 18 18 12 22 22 15 13 18 9 6 5 -30 9 11 6 1 7 1 8
9 9 10 8 9 7 7 6 7 6 5 4 6 6 8 18 19 1 7 9 9 13 17 19 18 15 18 17 16 19 19 16 22 11 9 10 5 3 -29 25 8 6 15 0 2
6 6 6 8 9 11 12 8 8 7 5 4 4 6 9 12 19 20 7 11 13 9 10 16 20 12 20 18 14 17 15 15 23 17 15 13 6 5 -3 3 12 -8 6 4 1
2 3 3 5 7 8 12 13 11 7 6 6 4 7 8 10 13 18 18 9 14 14 14 15 17 15 19 20 16 16 16 12 17 20 12 14 10 -3 8 16 22 2 1 0 6
2 3 2 2 1 4 5 8 9 12 11 10 6 6 5 8 7 17 15 12 9 11 10 15 20 14 12 23 16 16 14 14 13 19 15 12 20 2 -3 -11 21 -2 -2 0 1
3 5 3 2 1 3 3 4 6 10 15 11 9 8 6 5 9 7 17 14 11 9 9 22 19 16 13 17 18 17 15 14 14 20 16 9 13 20 -9 14 14 31 0 -0 4
2 6 6 2 2 1 2 3 5 5 9 11 14 10 8 8 6 8 6 17 14 12 9 10 15 21 16 11 17 18 13 13 15 13 15 12 12 14 13 1 -3 15 3 1 3
2 3 11 5 3 4 2 2 4 -0 5 8 6 12 15 10 10 9 8 9 15 16 12 9 11 15 18 16 11 17 16 12 14 16 9 12 14 7 19 8 23 -2 9 7 2
3 4 6 10 5 6 3 1 3 3 3 6 2 5 6 14 13 10 11 7 11 9 19 10 9 10 13 15 16 11 15 15 14 13 15 14 16 14 6 14 12 -4 17 22 36
3 3 5 8 6 5 6 1 1 3 1 0 4 2 2 5 8 16 14 11 10 9 9 19 14 8 11 10 17 13 12 12 16 13 12 7 16 14 10 13 11 7 -20 24 43
3 4 4 5 6 5 5 4 0 3 5 4 1 -1 4 3 5 3 10 16 12 11 5 11 11 21 8 9 9 19 14 14 12 12 14 14 12 13 14 10 12 10 24 37 22
4 3 4 2 4 7 4 6 1 5 7 4 2 1 4 4 3 4 5 6 15 13 14 6 10 9 17 17 7 12 9 5 20 16 9 11 14 12 12 11 12 12 5 14 2
4 4 4 3 3 4 6 7 5 4 3 4 3 3 1 5 1 11 4 7 3 11 17 18 9 5 12 8 20 16 8 14 8 27 20 10 10 11 13 9 11 10 12 14 15
4 3 4 4 2 3 2 4 5 5 4 3 5 5 2 2 2 -0 7 3 5 4 8 16 16 14 6 7 13 4 15 18 13 16 32 20 15 6 7 10 11 8 8 11 10
3 3 3 2 4 4 3 -1 4 5 6 4 4 6 5 2 4 2 1 5 5 3 4 5 6 18 16 11 7 3 10 5 12 18 14 34 28 10 11 4 7 8 11 16 17
5 4 5 3 3 5 4 2 3 5 5 4 4 6 5 5 3 6 1 7 1 0 9 4 6 8 14 14 11 10 5 4 8 7 17 16 25 26 24 10 6 5 4 7 16
4 7 5 3 1 4 4 4 1 5 5 4 5 4 3 5 4 0 5 2 6 2 2 13 4 5 4 6 16 11 16 6 8 5 10 16 16 19 19 20 10 9 10 3 2
-2 7 7 6 3 3 4 4 3 5 6 5 5 5 -0 7 6 4 4 1 8 4 3 16 5 7 3 8 6 18 9 13 10 10 10 8 9 21 17 17 19 14 8 11 7
7 6 9 8 1 3 6 5 4 4 5 5 7 4 4 8 6 9 7 4 -5 9 -2 -2 1 8 10 6 5 10 10 13 6 16 9 9 9 10 12 14 18 13 13 11 9
-2 17 0 3 3 0 6 4 5 5 6 4 7 2 7 6 8 -0 1 3 9 2 8 -1 2 6 9 5 7 4 2 9 12 9 13 20 12 7 17 12 21 19 20 13 17
5 5 -1 5 11 11 7 7 4 3 5 8 7 4 10 -9 14 -1 5 10 14 13 8 6 3 11 2 11 5 14 2 10 11 11 9 6 -5 21 -13 7 12 34 25 24 20
16 8 6 5 -0 13 5 4 1 6 6 10 1 9 1 -3 12 -1 3 5 8 11 12 1 9 14 9 13 11 19 12 7 8 8 13 10 23 7 6 3 1 19 24 19 17
8 6 3 6 10 10 6 -3 9 10 -0 5 -3 12 -8 17 4 -3 10 7 8 11 8 8 14 8 12 13 6 14 12 4 8 13 10 11 12 27 14 3 5 5 19 18 13
Height
5828 5825 5822 5818 5814 5810 5804 5800 5794 5787 5780 5771 5763 5753 5740 5726 5716 5708 5701 5696 5690 5684 5682 5680 5678 5679 5681 5686 5694 5704 5716 5729 5742 5754 5770 5779 5785 5791 5798 5805 5809 5815 5820 5824 5829
5827 5824 5821 5817 5813 5808 5804 5798 5792 5784 5776 5768 5759 5748 5736 5723 5714 5707 5699 5694 5688 5684 5680 5678 5675 5673 5675 5680 5686 5694 5708 5720 5725 5738 5756 5769 5775 5781 5791 5798 5803 5809 5815 5818 5823
5827 5824 5820 5816 5812 5808 5803 5797 5789 5782 5774 5765 5756 5745 5733 5722 5712 5704 5698 5692 5687 5682 5678 5675 5672 5671 5672 5674 5681 5688 5701 5706 5718 5732 5748 5761 5767 5771 5781 5790 5796 5802 5807 5812 5817
5826 5823 5819 5815 5811 5806 5802 5795 5788 5780 5772 5763 5754 5744 5732 5721 5712 5703 5698 5692 5686 5681 5676 5673 5671 5670 5670 5672 5677 5685 5691 5701 5712 5725 5740 5752 5759 5765 5770 5780 5788 5795 5801 5806 5809
5827 5823 5819 5815 5810 5805 5800 5793 5786 5779 5770 5762 5753 5743 5732 5721 5711 5704 5699 5693 5687 5681 5676 5673 5670 5670 5669 5671 5673 5679 5688 5696 5706 5719 5732 5743 5753 5761 5763 5770 5781 5788 5794 5799 5804
5826 5822 5819 5814 5809 5804 5798 5791 5785 5777 5769 5761 5752 5744 5733 5723 5712 5706 5700 5694 5688 5682 5677 5673 5670 5669 5669 5670 5672 5677 5685 5694 5702 5714 5725 5736 5744 5750 5756 5763 5771 5780 5786 5793 5798
5826 5822 5818 5814 5809 5803 5797 5790 5783 5776 5769 5761 5753 5744 5735 5726 5714 5706 5700 5694 5689 5683 5679 5674 5671 5670 5670 5671 5672 5677 5684 5691 5699 5709 5719 5729 5738 5747 5752 5758 5763 5771 5780 5786 5791
5827 5823 5818 5814 5808 5803 5797 5789 5783 5776 5769 5761 5754 5746 5738 5728 5718 5709 5702 5696 5691 5685 5680 5676 5673 5671 5671 5672 5673 5677 5683 5690 5698 5706 5714 5724 5735 5739 5743 5753 5755 5765 5773 5777 5783
5826 5823 5818 5813 5808 5803 5797 5790 5783 5776 5769 5762 5756 5747 5738 5728 5720 5712 5705 5699 5693 5688 5683 5678 5675 5673 5673 5673 5675 5678 5683 5689 5697 5702 5710 5718 5726 5733 5737 5745 5752 5757 5764 5771 5775
5825 5821 5818 5814 5809 5804 5798 5791 5784 5778 5771 5765 5755 5751 5742 5734 5724 5717 5709 5702 5696 5691 5686 5680 5677 5676 5675 5675 5677 5680 5684 5689 5694 5701 5707 5712 5721 5727 5733 5737 5747 5751 5756 5765 5768
5823 5820 5816 5813 5809 5804 5798 5792 5787 5780 5774 5766 5758 5750 5743 5737 5729 5721 5713 5706 5700 5694 5689 5684 5681 5679 5678 5678 5679 5681 5685 5689 5693 5699 5704 5708 5715 5721 5726 5732 5740 5747 5751 5756 5763
5821 5818 5814 5811 5807 5803 5798 5793 5788 5784 5775 5767 5760 5752 5746 5739 5732 5725 5719 5712 5705 5699 5694 5690 5686 5683 5681 5681 5682 5683 5685 5689 5694 5698 5702 5706 5712 5717 5722 5727 5734 5736 5744 5750 5756
5819 5816 5813 5809 5805 5802 5797 5793 5788 5783 5777 5770 5763 5756 5749 5742 5735 5729 5723 5717 5710 5704 5698 5694 5691 5687 5685 5683 5684 5685 5687 5689 5693 5697 5701 5705 5710 5714 5719 5722 5727 5733 5739 5743 5750
5816 5814 5810 5807 5804 5800 5796 5791 5787 5782 5777 5772 5765 5759 5753 5745 5738 5731 5724 5720 5714 5708 5704 5699 5694 5691 5689 5687 5686 5686 5688 5690 5692 5695 5698 5701 5705 5709 5712 5718 5722 5725 5730 5732 5737
5813 5811 5808 5805 5802 5798 5795 5790 5785 5781 5777 5772 5765 5761 5753 5748 5744 5737 5729 5721 5716 5712 5708 5703 5699 5694 5691 5690 5688 5688 5688 5689 5691 5693 5695 5697 5701 5705 5709 5714 5718 5721 5723 5724 5725
5810 5807 5805 5803 5800 5796 5793 5789 5785 5782 5777 5773 5767 5761 5756 5751 5745 5739 5734 5727 5719 5714 5710 5706 5702 5698 5695 5692 5690 5689 5689 5688 5688 5689 5691 5692 5696 5703 5703 5704 5707 5708 5712 5716 5719
5805 5804 5801 5800 5797 5794 5790 5788 5785 5779 5775 5771 5766 5762 5757 5751 5746 5741 5736 5731 5725 5719 5713 5709 5704 5700 5697 5694 5691 5689 5688 5687 5687 5686 5686 5688 5691 5698 5696 5696 5698 5700 5703 5709 5711
5801 5799 5797 5795 5793 5791 5788 5786 5782 5778 5773 5769 5765 5761 5756 5752 5747 5741 5736 5731 5726 5721 5715 5710 5706 5702 5698 5696 5694 5690 5688 5686 5684 5683 5681 5682 5685 5688 5689 5689 5689 5693 5696 5700 5708
5795 5794 5792 5790 5789 5787 5785 5782 5778 5774 5771 5766 5763 5759 5755 5750 5745 5740 5736 5732 5727 5722 5718 5712 5707 5703 5699 5695 5694 5690 5688 5686 5682 5680 5679 5678 5680 5683 5681 5682 5685 5688 5691 5695 5700
5789 5788 5786 5784 5783 5782 5780 5777 5773 5770 5767 5763 5759 5756 5752 5749 5744 5739 5734 5730 5727 5722 5718 5714 5709 5704 5700 5696 5693 5690 5687 5685 5681 5678 5676 5675 5676 5676 5676 5677 5678 5682 5684 5686 5690
5781 5780 5780 5778 5777 5776 5774 5772 5769 5766 5762 5759 5756 5752 5748 5744 5742 5738 5734 5730 5724 5720 5716 5713 5709 5705 5700 5696 5692 5688 5685 5682 5680 5677 5674 5672 5673 5670 5670 5671 5672 5675 5676 5677 5679
5773 5772 5772 5770 5770 5769 5768 5765 5764 5761 5756 5754 5751 5747 5743 5739 5737 5734 5730 5725 5721 5716 5713 5709 5706 5703 5699 5694 5692 5686 5683 5679 5676 5675 5672 5670 5670 5664 5663 5665 5666 5666 5667 5668 5670
5764 5764 5763 5762 5760 5761 5760 5758 5755 5753 5751 5747 5745 5741 5737 5735 5729 5729 5725 5723 5718 5712 5707 5705 5700 5696 5696 5692 5688 5685 5680 5676 5674 5671 5670 5665 5666 5660 5658 5657 5658 5658 5660 5662 5663
5754 5753 5755 5752 5751 5750 5750 5749 5747 5745 5743 5740 5738 5734 5730 5729 5725 5720 5718 5715 5713 5708 5704 5699 5699 5696 5691 5687 5681 5680 5676 5671 5669 5667 5664 5663 5658 5657 5653 5650 5648 5649 5652 5655 5657
5744 5743 5743 5741 5740 5740 5740 5740 5739 5735 5734 5733 5731 5726 5724 5721 5716 5713 5711 5708 5706 5702 5698 5692 5690 5688 5687 5682 5678 5675 5673 5667 5663 5661 5657 5659 5653 5654 5645 5643 5643 5642 5644 5646 5648
5734 5733 5732 5731 5731 5729 5729 5730 5729 5726 5724 5724 5721 5718 5716 5713 5707 5703 5700 5699 5698 5695 5690 5686 5679 5675 5679 5675 5671 5669 5666 5661 5658 5655 5651 5649 5649 5642 5642 5640 5638 5637 5637 5639 5640
5723 5721 5720 5721 5721 5719 5720 5718 5717 5715 5716 5714 5710 5708 5707 5702 5698 5695 5692 5689 5685 5685 5681 5677 5672 5665 5664 5664 5663 5662 5658 5654 5651 5648 5644 5642 5640 5637 5635 5634 5633 5631 5631 5632 5633